Weather History for Deer Park, WA

Change the Weather History Date:

Friday, April 5, 2013

  Actual Average Record
Temperature  
Mean Temperature 53 °F 43 °F  
Max Temperature 60 °F 55 °F 64 °F (2004)
Min Temperature 45 °F 31 °F 24 °F (2012)
Degree Days  
Heating Degree Days 12 22  
Month to date heating degree days 67 112  
Since 1 July heating degree days 5972 6319  
Cooling Degree Days 0 0  
Month to date cooling degree days 0 0  
Year to date cooling degree days 0 0  
Moisture  
Dew Point 42 °F    
Average Humidity 72    
Maximum Humidity 93    
Minimum Humidity 51    
Precipitation  
Precipitation 0.08 in 0.07 in 0.19 in (2006)
Month to date precipitation 0.27 0.36  
Year to date precipitation 3.75 6.68  
Sea Level Pressure  
Sea Level Pressure 29.82 in    
Wind  
Wind Speed 11 mph (SSW)    
Max Wind Speed 25 mph    
Max Gust Speed 31 mph    
Visibility 10 miles    
Events Rain    
T = Trace of Precipitation, MM = Missing Value Source: NWS Daily Summary

Daily Weather History Graph

Daily Weather History Graph

Search for Another Location

Airport:

Trip Planner

Search our weather history database for the weather conditions in past years. The results will help you decide how hot, cold, wet, or windy it might be!

Date:

Astronomy

Apr. 05, 2013 Rise Set
Actual Time 6:19 AM PDT 7:26 PM PDT
Civil Twilight 5:47 AM PDT 7:57 PM PDT
Nautical Twilight 5:09 AM PDT 8:36 PM PDT
Astronomical Twilight 4:28 AM PDT 9:17 PM PDT
Moon 3:49 AM PDT (4/5) 2:36 PM PDT (4/5)
Length of Visible Light 14h 10m
Length of Day
13h 06m
Waning Crescent, 22% of the Moon is Illuminated
Apr 5
Waning Crescent
Apr 10
New
Apr 18
First Quarter
Apr 25
Full
May 2
Last Quarter

Hourly Weather History & Observations

Time (PDT) Temp. Windchill Dew Point Humidity Pressure Visibility Wind Dir Wind Speed Gust Speed Precip Events Conditions
12:53 AM 48.9 °F - 46.0 °F 90% 29.79 in 10.0 mi SW 16.1 mph - N/A   Overcast
1:35 AM 48.2 °F - 44.6 °F 87% 29.80 in 10.0 mi SSW 16.1 mph - N/A   Overcast
1:53 AM 48.9 °F - 44.1 °F 83% 29.80 in 10.0 mi SSW 17.3 mph 25.3 mph N/A   Scattered Clouds
2:21 AM 48.2 °F - 44.6 °F 87% 29.80 in 10.0 mi SSW 11.5 mph 18.4 mph N/A   Mostly Cloudy
2:53 AM 48.0 °F - 44.1 °F 86% 29.81 in 10.0 mi South 4.6 mph - N/A   Overcast
3:53 AM 46.9 °F - 44.1 °F 90% 29.82 in 10.0 mi South 10.4 mph - N/A   Overcast
4:53 AM 46.9 °F - 43.0 °F 86% 29.82 in 10.0 mi Variable 6.9 mph - N/A   Overcast
5:46 AM 46.4 °F 43.5 °F 42.8 °F 87% 29.80 in 10.0 mi South 5.8 mph - N/A   Overcast
5:53 AM 46.0 °F 43.9 °F 42.1 °F 86% 29.81 in 10.0 mi SSE 4.6 mph - N/A   Overcast
6:07 AM 44.6 °F - 42.8 °F 93% 29.80 in 10.0 mi Calm Calm - N/A   Overcast
6:53 AM 46.0 °F 43.9 °F 43.0 °F 89% 29.81 in 10.0 mi South 4.6 mph - N/A   Overcast
7:25 AM 46.4 °F 41.1 °F 42.8 °F 87% 29.81 in 10.0 mi SSW 11.5 mph 17.3 mph N/A   Overcast
7:53 AM 46.9 °F - 42.1 °F 83% 29.82 in 10.0 mi SSW 13.8 mph - N/A   Mostly Cloudy
8:27 AM 46.4 °F 41.1 °F 42.8 °F 87% 29.81 in 10.0 mi SSW 11.5 mph - 0.00 in Rain Light Rain
8:53 AM 46.0 °F 41.4 °F 43.0 °F 89% 29.83 in 6.0 mi SSW 9.2 mph - 0.03 in Rain Light Rain
9:53 AM 46.0 °F 39.6 °F 43.0 °F 89% 29.82 in 10.0 mi SSW 15.0 mph - 0.03 in Rain Light Rain
10:53 AM 48.0 °F - 44.1 °F 86% 29.82 in 10.0 mi SSW 18.4 mph 25.3 mph 0.01 in Rain Light Rain
11:53 AM 48.9 °F - 43.0 °F 80% 29.83 in 10.0 mi SSW 15.0 mph 25.3 mph 0.01 in   Overcast
12:53 PM 50.0 °F - 44.1 °F 80% 29.83 in 10.0 mi SSW 11.5 mph - N/A   Overcast
1:53 PM 55.0 °F - 45.0 °F 69% 29.83 in 10.0 mi WSW 12.7 mph - N/A   Overcast
2:09 PM 55.4 °F - 44.6 °F 67% 29.82 in 10.0 mi SSW 17.3 mph 21.9 mph N/A   Overcast
2:53 PM 57.0 °F - 41.0 °F 55% 29.83 in 10.0 mi SW 20.7 mph 27.6 mph N/A   Mostly Cloudy
3:53 PM 57.0 °F - 41.0 °F 55% 29.83 in 10.0 mi SW 16.1 mph - N/A   Mostly Cloudy
4:53 PM 57.0 °F - 39.9 °F 53% 29.83 in 10.0 mi Variable 5.8 mph - N/A   Mostly Cloudy
5:53 PM 57.0 °F - 39.0 °F 51% 29.82 in 10.0 mi SSW 10.4 mph - N/A   Clear
6:53 PM 54.0 °F - 39.0 °F 57% 29.82 in 10.0 mi South 8.1 mph - N/A   Mostly Cloudy
7:53 PM 52.0 °F - 39.9 °F 63% 29.83 in 10.0 mi SW 9.2 mph - 0.00 in   Overcast
8:53 PM 51.1 °F - 39.9 °F 66% 29.85 in 10.0 mi SSW 9.2 mph - N/A   Overcast
9:53 PM 50.0 °F - 39.9 °F 68% 29.85 in 10.0 mi SSW 8.1 mph - N/A   Clear
10:53 PM 48.0 °F - 39.0 °F 71% 29.86 in 10.0 mi South 10.4 mph - N/A   Mostly Cloudy
11:53 PM 48.0 °F - 39.0 °F 71% 29.86 in 10.0 mi South 8.1 mph - N/A   Overcast